Location: Little Baddow
(51.7333°N, 0.5667°E)
Time: 09:34:18
(UTC+00:00)

COSMOS 2428 - Pass Details

Date: 22 February 2026
Orbit: 843 x 856 km, 70.9° (Epoch: 7 March)

Event Time Altitude Azimuth Distance (km) Brightness Sun altitude
Rises 05:56:57 0° 175° (S) 3,400 6.0 -10.2°
Reaches altitude 10° 05:59:37 10° 165° (SSE) 2,471 5.4 -9.8°
Maximum altitude 06:04:32 31° 106° (ESE) 1,458 4.9 -9.0°
Drops below altitude 10° 06:09:28 10° 46° (NE) 2,494 5.8 -8.2°
Sets 06:12:10 0° 36° (NE) 3,436 6.3 -7.8°
